Tracking 22879 objects as of 20-Apr-2021
HD Live streaming from Space Station
objects crossing your sky now

SL-8 DEB

Track SL-8 DEB now!
10-day predictions


NORAD ID: 21212
Int'l Code: 1991-009BF
Perigee: 1,470.7 km
Apogee: 1,843.9 km
Inclination: 74.2 °
Period: 119.3 minutes
Semi major axis: 8028 km
RCS: 0.1545 m2 (medium)
Launch date: February 12, 1991
Source: Commonwealth of Independent States (former USSR) (CIS)
Launch site: PLESETSK MISSILE AND SPACE COMPLEX (PKMTR)

Note: This is SATELLITE DEBRIS
aabbcc
Your satellite tracking list
Your tracking list is empty




NASA's NSSDC Master Catalog

Two Line Element Set (TLE):
1 21212U 91009BF  21109.75707262 -.00000192  00000-0 -18715-2 0  9994
2 21212  74.1576 105.4704 0232433 340.3937 194.4251 12.06882726324341
Source of the keplerian elements: AFSPC